FW8782 Weather Reports


Display with metric or nautical units.
time (UTC)temp
F
wind
direction
speed
MPH
gust
MPH
rain 1hr
in
rain 24hr
in
rain mn
in
humidity
%
barometer
mb
20260831080038 55 0 0.0 0.0 0.00 0.00 0.00 84 1016.0
20260831075518 55 0 0.0 0.0 0.00 0.00 0.00 84 1015.9
20260831075022 55 0 0.0 0.0 0.00 0.00 0.00 84 1015.8
20260831074540 55 0 0.0 0.0 0.00 0.00 0.00 83 1016.0
20260831074025 56 0 0.0 0.0 0.00 0.00 0.00 83 1015.9
20260831073519 56 0 0.0 0.0 0.00 0.00 0.00 83 1016.0
20260831073048 56 0 0.0 0.0 0.00 0.00 0.00 83 1016.1
20260831072524 56 0 0.0 0.0 0.00 0.00 0.00 83 1016.1
20260831072021 56 0 0.0 0.0 0.00 0.00 0.00 83 1016.1
20260831071538 56 0 0.0 0.0 0.00 0.00 0.00 83 1016.1
20260831071021 56 0 0.0 0.0 0.00 0.00 0.00 83 1016.2
20260831070521 57 0 0.0 0.0 0.00 0.00 0.00 82 1016.3
20260831070047 57 0 0.0 0.0 0.00 0.00 0.00 82 1016.3
20260831065521 57 0 0.0 0.0 0.00 0.00 0.00 82 1016.3
20260831065022 57 0 0.0 0.0 0.00 0.00 0.00 82 1016.3
20260831064542 57 0 0.0 0.0 0.00 0.00 0.00 82 1016.4
20260831064015 57 0 0.0 0.0 0.00 0.00 0.00 82 1016.5
20260831063517 57 0 0.0 0.0 0.00 0.00 0.00 82 1016.5
20260831063038 58 0 0.0 0.0 0.00 0.00 0.00 81 1016.5
20260831062521 58 0 0.0 0.0 0.00 0.00 0.00 81 1016.6
20260831062022 58 0 0.0 0.0 0.00 0.00 0.00 80 1016.6
20260831061537 58 0 0.0 0.0 0.00 0.00 0.00 80 1016.6
20260831061022 58 0 0.0 0.0 0.00 0.00 0.00 80 1016.7
20260831060526 58 0 0.0 0.0 0.00 0.00 0.00 80 1016.7
20260831060042 59 0 0.0 0.0 0.00 0.00 0.00 80 1016.6
20260831055520 59 0 0.0 0.0 0.00 0.00 0.00 80 1016.7
20260831055025 59 0 0.0 0.0 0.00 0.00 0.00 80 1016.7
20260831054542 59 0 0.0 0.0 0.00 0.00 0.00 79 1016.7
20260831054021 59 0 0.0 0.0 0.00 0.00 0.00 79 1016.9
20260831053521 59 0 0.0 0.0 0.00 0.00 0.00 79 1017.0
20260831053037 59 0 0.0 0.0 0.00 0.00 0.00 79 1017.0
20260831052517 60 0 0.0 0.0 0.00 0.00 0.00 78 1017.1
20260831052020 60 0 0.0 0.0 0.00 0.00 0.00 78 1017.1
20260831051540 60 0 0.0 0.0 0.00 0.00 0.00 78 1017.1
20260831051016 60 0 0.0 0.0 0.00 0.00 0.00 78 1017.1
20260831050519 60 0 0.0 0.0 0.00 0.00 0.00 78 1017.2
20260831050057 60 0 0.0 0.0 0.00 0.00 0.00 78 1017.1
20260831045517 60 0 0.0 0.0 0.00 0.00 0.00 77 1017.1
20260831045023 61 0 0.0 0.0 0.00 0.00 0.00 77 1017.2
20260831044551 61 0 0.0 0.0 0.00 0.00 0.00 77 1017.2
20260831044018 61 0 0.0 0.0 0.00 0.00 0.00 76 1017.2
20260831043521 61 0 0.0 0.0 0.00 0.00 0.00 76 1017.3
20260831043036 61 0 0.0 0.0 0.00 0.00 0.00 76 1017.3
20260831042520 61 0 0.0 0.0 0.00 0.00 0.00 75 1017.4
20260831042020 62 0 0.0 0.0 0.00 0.00 0.00 75 1017.3
20260831041539 62 0 0.0 0.0 0.00 0.00 0.00 74 1017.4
20260831041021 62 0 0.0 0.0 0.00 0.00 0.00 74 1017.4
20260831040521 62 0 0.0 0.0 0.00 0.00 0.00 73 1017.4
20260831040037 62 0 0.0 0.0 0.00 0.00 0.00 73 1017.3
20260831035520 62 0 0.0 0.0 0.00 0.00 0.00 72 1017.4
20260831035020 63 0 0.0 0.0 0.00 0.00 0.00 72 1017.3
20260831034535 63 0 0.0 0.0 0.00 0.00 0.00 72 1017.2
20260831034020 63 0 0.0 0.0 0.00 0.00 0.00 72 1017.2
20260831033523 63 0 0.0 0.0 0.00 0.00 0.00 71 1017.2
20260831033042 63 0 0.0 0.0 0.00 0.00 0.00 70 1017.2
20260831032525 64 0 0.0 0.0 0.00 0.00 0.00 70 1017.2
20260831032018 64 0 0.0 0.0 0.00 0.00 0.00 69 1017.2
20260831031544 64 0 0.0 0.0 0.00 0.00 0.00 68 1017.2
20260831031020 64 0 0.0 0.0 0.00 0.00 0.00 67 1017.1
20260831030520 65 0 0.0 2.0 0.00 0.00 0.00 66 1017.1
20260831030038 65 0 0.0 2.0 0.00 0.00 0.00 66 1017.1
20260831025521 65 0 0.0 0.0 0.00 0.00 0.00 66 1017.1
20260831025022 66 0 0.0 0.0 0.00 0.00 0.00 65 1017.1
20260831024605 66 0 0.0 0.0 0.00 0.00 0.00 65 1017.1
20260831024020 67 0 0.0 0.0 0.00 0.00 0.00 65 1017.2
20260831023520 67 0 0.0 0.0 0.00 0.00 0.00 64 1017.2
20260831023042 67 0 0.0 0.0 0.00 0.00 0.00 64 1017.2
20260831022518 67 0 0.0 0.0 0.00 0.00 0.00 63 1017.2
20260831022019 68 0 0.0 0.0 0.00 0.00 0.00 63 1017.2
20260831021543 68 0 0.0 0.0 0.00 0.00 0.00 63 1017.3
20260831021021 68 0 0.0 0.0 0.00 0.00 0.00 63 1017.3
20260831020521 69 0 0.0 2.0 0.00 0.00 0.00 64 1017.3
20260831015520 69 0 0.0 2.0 0.00 0.00 0.00 61 1017.3
20260831015020 69 314 0.0 2.0 0.00 0.00 0.00 62 1017.3
20260831014557 69 0 0.0 2.0 0.00 0.00 0.00 61 1017.3
20260831014020 69 311 0.0 2.0 0.00 0.00 0.00 61 1017.3
20260831013523 70 0 0.0 2.0 0.00 0.00 0.00 60 1017.4
20260831013040 70 311 0.0 2.0 0.00 0.00 0.00 60 1017.4
20260831012523 70 309 1.0 2.0 0.00 0.00 0.00 59 1017.4
20260831012019 70 241 0.0 2.0 0.00 0.00 0.00 61 1017.5
20260831011539 71 240 1.0 2.0 0.00 0.00 0.00 59 1017.5
20260831011021 71 276 0.0 2.0 0.00 0.00 0.00 58 1017.5
20260831010521 72 298 0.0 2.0 0.00 0.00 0.00 56 1017.5
20260831010047 73 341 1.0 2.0 0.00 0.00 0.00 56 1017.6
20260831005521 73 0 1.0 2.0 0.00 0.00 0.00 54 1017.6
20260831005023 74 246 1.0 3.0 0.00 0.00 0.00 53 1017.6
20260831004540 74 0 0.0 3.0 0.00 0.00 0.00 54 1017.7
20260831004021 74 313 1.0 3.0 0.00 0.00 0.00 53 1017.7
20260831003521 74 323 1.0 3.0 0.00 0.00 0.00 53 1017.8
20260831003038 75 343 2.0 4.0 0.00 0.00 0.00 52 1017.8
20260831002520 75 323 1.0 4.0 0.00 0.00 0.00 53 1017.7
20260831002021 74 0 1.0 3.0 0.00 0.00 0.00 53 1017.8
20260831001551 74 292 1.0 3.0 0.00 0.00 0.00 55 1017.8
20260831001021 74 236 1.0 3.0 0.00 0.00 0.00 53 1017.9
20260831000521 74 317 1.0 3.0 0.00 0.00 0.00 52 1017.9
20260831000040 75 322 1.0 3.0 0.00 0.00 0.00 53 1018.0
20260830235525 75 281 0.0 2.0 0.00 0.00 0.00 53 1018.0
20260830235023 75 15 0.0 3.0 0.00 0.00 0.00 53 1017.9
20260830234605 74 0 0.0 3.0 0.00 0.00 0.00 56 1018.0
20260830234020 73 249 1.0 3.0 0.00 0.00 0.00 54 1018.0
20260830233522 73 344 1.0 3.0 0.00 0.00 0.00 54 1018.1
20260830233039 74 321 1.0 4.0 0.00 0.00 0.00 54 1018.1
20260830232552 74 217 1.0 4.0 0.00 0.00 0.00 53 1018.1
20260830232019 74 345 1.0 3.0 0.00 0.00 0.00 54 1018.2
20260830231538 74 243 1.0 3.0 0.00 0.00 0.00 52 1018.3
20260830231020 75 327 1.0 3.0 0.00 0.00 0.00 53 1018.3
20260830230520 74 178 0.0 3.0 0.00 0.00 0.00 56 1018.3
20260830230039 73 269 0.0 2.0 0.00 0.00 0.00 57 1018.4
20260830225520 73 266 0.0 3.0 0.00 0.00 0.00 55 1018.4
20260830225022 73 265 1.0 4.0 0.00 0.00 0.00 54 1018.4
20260830224542 74 321 2.0 4.0 0.00 0.00 0.00 54 1018.5
20260830224019 74 239 1.0 3.0 0.00 0.00 0.00 55 1018.6
20260830223518 74 324 1.0 3.0 0.00 0.00 0.00 56 1018.7
20260830223041 73 346 1.0 3.0 0.00 0.00 0.00 54 1018.7
20260830222520 73 69 1.0 4.0 0.00 0.00 0.00 55 1018.6
20260830222027 73 238 1.0 5.0 0.00 0.00 0.00 57 1018.7
20260830221536 73 302 2.0 6.0 0.00 0.00 0.00 53 1018.8
20260830221022 73 225 2.0 6.0 0.00 0.00 0.00 53 1018.8
20260830220520 73 200 1.0 6.0 0.00 0.00 0.00 54 1018.8
20260830220042 73 254 0.0 3.0 0.00 0.00 0.00 55 1018.8
20260830215519 73 261 1.0 4.0 0.00 0.00 0.00 57 1018.9
20260830215020 72 283 1.0 4.0 0.00 0.00 0.00 54 1018.9
20260830214540 73 351 1.0 4.0 0.00 0.00 0.00 55 1019.0
20260830214020 73 104 0.0 4.0 0.00 0.00 0.00 58 1019.1
20260830213520 73 279 2.0 4.0 0.00 0.00 0.00 54 1019.1
20260830213040 73 333 2.0 3.0 0.00 0.00 0.00 55 1019.2
20260830212522 72 235 1.0 2.0 0.00 0.00 0.00 57 1019.2
20260830212023 72 121 1.0 3.0 0.00 0.00 0.00 59 1019.3
20260830211539 71 321 1.0 3.0 0.00 0.00 0.00 57 1019.2
20260830211019 71 295 2.0 3.0 0.00 0.00 0.00 58 1019.4
20260830210520 71 322 1.0 2.0 0.00 0.00 0.00 61 1019.4
20260830210041 71 286 1.0 2.0 0.00 0.00 0.00 59 1019.3
20260830205523 72 105 0.0 3.0 0.00 0.00 0.00 60 1019.3
20260830205026 72 114 1.0 3.0 0.00 0.00 0.00 59 1019.4
20260830204538 72 52 1.0 3.0 0.00 0.00 0.00 61 1019.4
20260830204021 72 306 1.0 3.0 0.00 0.00 0.00 58 1019.5
20260830203519 73 56 1.0 3.0 0.00 0.00 0.00 57 1019.5
20260830203038 72 242 0.0 4.0 0.00 0.00 0.00 60 1019.6
20260830202528 71 0 1.0 4.0 0.00 0.00 0.00 61 1019.6
20260830202019 71 210 1.0 3.0 0.00 0.00 0.00 58 1019.6
20260830201603 70 37 1.0 3.0 0.00 0.00 0.00 62 1019.7
20260830201021 70 0 1.0 3.0 0.00 0.00 0.00 62 1019.7
20260830200520 69 62 1.0 3.0 0.00 0.00 0.00 63 1019.7
20260830200039 68 88 0.0 2.0 0.00 0.00 0.00 66 1019.8
20260830195522 67 210 0.0 3.0 0.00 0.00 0.00 69 1019.9
20260830195021 67 240 2.0 3.0 0.00 0.00 0.00 66 1019.9
20260830194539 66 0 1.0 3.0 0.00 0.00 0.00 68 1019.9
20260830194016 66 252 0.0 2.0 0.00 0.00 0.00 69 1019.8
20260830193520 66 244 0.0 2.0 0.00 0.00 0.00 67 1020.0
20260830193042 66 249 1.0 2.0 0.00 0.00 0.00 68 1020.0
20260830192518 66 254 1.0 2.0 0.00 0.00 0.00 68 1020.0
20260830192021 66 246 1.0 2.0 0.00 0.00 0.00 69 1020.2
20260830191545 65 261 0.0 2.0 0.00 0.00 0.00 69 1020.1
20260830191026 65 312 0.0 2.0 0.00 0.00 0.00 69 1020.1
20260830190521 65 321 1.0 2.0 0.00 0.00 0.00 69 1020.2
20260830190040 65 0 0.0 1.0 0.00 0.00 0.00 70 1020.2
20260830185521 65 275 0.0 2.0 0.00 0.00 0.00 69 1020.1
20260830185021 65 0 0.0 3.0 0.00 0.00 0.00 70 1020.0
20260830184542 65 327 1.0 3.0 0.00 0.00 0.00 70 1020.1
20260830184017 65 264 1.0 3.0 0.00 0.00 0.00 69 1020.2
20260830183520 65 28 0.0 2.0 0.00 0.00 0.00 70 1020.3
20260830183039 65 212 0.0 3.0 0.00 0.00 0.00 70 1020.3
20260830182521 65 66 0.0 3.0 0.00 0.00 0.00 69 1020.3
20260830182021 65 44 0.0 2.0 0.00 0.00 0.00 71 1020.4
20260830181555 65 182 0.0 2.0 0.00 0.00 0.00 71 1020.4
20260830181018 65 198 0.0 3.0 0.00 0.00 0.00 73 1020.5
20260830180520 64 0 1.0 3.0 0.00 0.00 0.00 72 1020.4
20260830180040 64 221 1.0 3.0 0.00 0.00 0.00 72 1020.3
20260830175520 63 146 0.0 4.0 0.00 0.00 0.00 75 1020.4
20260830175024 62 0 0.0 4.0 0.00 0.00 0.00 77 1020.5
20260830174538 61 0 1.0 3.0 0.00 0.00 0.00 77 1020.5
20260830174021 60 140 0.0 2.0 0.00 0.00 0.00 78 1020.5
20260830173521 59 60 0.0 2.0 0.00 0.00 0.00 80 1020.5
20260830173039 59 65 0.0 3.0 0.00 0.00 0.00 81 1020.5
20260830172516 58 0 1.0 3.0 0.00 0.00 0.00 80 1020.5
20260830172019 58 248 0.0 2.0 0.00 0.00 0.00 81 1020.4
20260830171538 57 240 1.0 2.0 0.00 0.00 0.00 83 1020.4
20260830171024 57 238 0.0 3.0 0.00 0.00 0.00 84 1020.4
20260830170521 56 0 0.0 3.0 0.00 0.00 0.00 84 1020.4
20260830170039 56 238 1.0 2.0 0.00 0.00 0.00 85 1020.5
20260830165521 55 240 0.0 2.0 0.00 0.00 0.00 86 1020.5
20260830165018 55 0 0.0 4.0 0.00 0.00 0.00 87 1020.5
20260830164539 55 242 0.0 4.0 0.00 0.00 0.00 87 1020.6
20260830164019 55 259 0.0 2.0 0.00 0.00 0.00 87 1020.5
20260830163521 54 352 0.0 2.0 0.00 0.00 0.00 88 1020.6
20260830163038 54 301 0.0 2.0 0.00 0.00 0.00 88 1020.7
20260830162526 54 0 1.0 2.0 0.00 0.00 0.00 88 1020.7
20260830162018 54 253 0.0 2.0 0.00 0.00 0.00 88 1020.7
20260830161538 54 253 0.0 2.0 0.00 0.00 0.00 88 1020.8
20260830161020 54 0 0.0 2.0 0.00 0.00 0.00 88 1020.7
20260830160520 54 253 0.0 2.0 0.00 0.00 0.00 89 1020.7
20260830160039 54 253 0.0 2.0 0.00 0.00 0.00 89 1020.6
20260830155520 53 0 0.0 2.0 0.00 0.00 0.00 89 1020.7
20260830155019 53 0 0.0 2.0 0.00 0.00 0.00 89 1020.8
20260830154538 53 253 0.0 2.0 0.00 0.00 0.00 89 1020.8
20260830154018 53 0 0.0 0.0 0.00 0.00 0.00 89 1020.9
20260830153518 53 0 0.0 0.0 0.00 0.00 0.00 89 1020.9
20260830153042 52 0 0.0 0.0 0.00 0.00 0.00 89 1020.8
20260830152524 52 0 0.0 0.0 0.00 0.00 0.00 89 1020.7
20260830152021 52 0 0.0 0.0 0.00 0.00 0.00 89 1020.7
20260830151538 52 0 0.0 0.0 0.00 0.00 0.00 89 1020.8
20260830151029 52 0 0.0 0.0 0.00 0.00 0.00 89 1020.6
20260830150518 51 0 0.0 0.0 0.00 0.00 0.00 89 1020.5
20260830150037 51 0 0.0 0.0 0.00 0.00 0.00 89 1020.5
20260830145520 51 0 0.0 0.0 0.00 0.00 0.00 89 1020.6
20260830145019 51 0 0.0 0.0 0.00 0.00 0.00 89 1020.5
20260830144543 50 0 0.0 0.0 0.00 0.00 0.00 89 1020.4
20260830144019 50 0 0.0 0.0 0.00 0.00 0.00 89 1020.5
20260830143516 50 0 0.0 0.0 0.00 0.00 0.00 89 1020.5
20260830143038 50 0 0.0 0.0 0.00 0.00 0.00 89 1020.5
20260830142522 50 0 0.0 0.0 0.00 0.00 0.00 89 1020.4
20260830142021 50 0 0.0 0.0 0.00 0.00 0.00 89 1020.4
20260830141538 49 0 0.0 0.0 0.00 0.00 0.00 89 1020.3
20260830141023 49 0 0.0 0.0 0.00 0.00 0.00 89 1020.2
20260830140520 49 0 0.0 0.0 0.00 0.00 0.00 89 1020.1
20260830140039 49 0 0.0 0.0 0.00 0.00 0.00 89 1020.1
20260830135522 49 0 0.0 0.0 0.00 0.00 0.00 89 1020.1
20260830135053 49 0 0.0 0.0 0.00 0.00 0.00 89 1019.9
20260830134539 49 0 0.0 0.0 0.00 0.00 0.00 89 1019.9
20260830134016 49 0 0.0 0.0 0.00 0.00 0.00 89 1020.0
20260830133523 49 0 0.0 0.0 0.00 0.00 0.00 89 1019.9
20260830133044 49 0 0.0 0.0 0.00 0.00 0.00 89 1019.9
20260830132518 49 0 0.0 0.0 0.00 0.00 0.00 89 1019.8
20260830132021 49 0 0.0 0.0 0.00 0.00 0.00 89 1019.8
20260830131538 49 0 0.0 0.0 0.00 0.00 0.00 89 1019.7
20260830131021 49 0 0.0 0.0 0.00 0.00 0.00 89 1019.7
20260830130524 49 0 0.0 0.0 0.00 0.00 0.00 89 1019.8
20260830130040 49 0 0.0 0.0 0.00 0.00 0.00 89 1019.8
20260830125521 49 0 0.0 0.0 0.00 0.01 0.00 89 1019.8
20260830125022 49 0 0.0 0.0 0.00 0.01 0.00 89 1019.7
20260830124539 49 0 0.0 0.0 0.00 0.01 0.00 89 1019.8
20260830124022 49 0 0.0 0.0 0.00 0.01 0.00 89 1019.8
20260830123516 49 0 0.0 0.0 0.00 0.01 0.00 89 1019.8
20260830123037 49 0 0.0 0.0 0.00 0.01 0.00 89 1019.8
20260830122521 50 0 0.0 0.0 0.00 0.01 0.00 89 1019.8
20260830122021 50 0 0.0 0.0 0.00 0.01 0.00 89 1019.9
20260830121539 49 0 0.0 0.0 0.00 0.01 0.00 89 1019.8
20260830121021 49 0 0.0 0.0 0.00 0.01 0.00 89 1019.8
20260830120526 49 0 0.0 0.0 0.00 0.01 0.00 89 1019.7
20260830120045 49 0 0.0 0.0 0.00 0.01 0.00 89 1019.8
20260830115525 49 0 0.0 0.0 0.00 0.01 0.00 89 1019.7
20260830115020 49 0 0.0 0.0 0.00 0.01 0.00 89 1019.7
20260830114551 49 0 0.0 0.0 0.00 0.01 0.00 89 1019.7
20260830114019 49 0 0.0 0.0 0.00 0.01 0.00 89 1019.7
20260830113516 49 0 0.0 0.0 0.00 0.01 0.00 89 1019.7
20260830113039 49 0 0.0 0.0 0.00 0.01 0.00 89 1019.7
20260830112521 49 0 0.0 0.0 0.00 0.01 0.00 89 1019.7
20260830112018 49 0 0.0 0.0 0.00 0.01 0.00 89 1019.7
20260830111539 48 0 0.0 0.0 0.00 0.01 0.00 88 1019.7
20260830111021 48 0 0.0 0.0 0.00 0.01 0.00 88 1019.6
20260830110521 48 0 0.0 0.0 0.00 0.01 0.00 88 1019.7
20260830110036 49 0 0.0 0.0 0.00 0.01 0.00 88 1019.7
20260830105524 49 0 0.0 0.0 0.00 0.01 0.00 88 1019.7
20260830105020 49 0 0.0 0.0 0.00 0.01 0.00 88 1019.7
20260830104539 49 0 0.0 0.0 0.00 0.01 0.00 88 1019.6
20260830104016 49 0 0.0 0.0 0.00 0.01 0.00 88 1019.6
20260830103523 49 0 0.0 0.0 0.00 0.01 0.00 88 1019.7
20260830103038 49 0 0.0 0.0 0.00 0.01 0.00 88 1019.7
20260830102518 49 0 0.0 0.0 0.00 0.01 0.00 88 1019.7
20260830102020 49 0 0.0 0.0 0.00 0.01 0.00 88 1019.6
20260830101537 50 0 0.0 0.0 0.00 0.01 0.00 88 1019.6
20260830101018 50 0 0.0 0.0 0.00 0.01 0.00 88 1019.6
20260830100520 50 0 0.0 0.0 0.00 0.01 0.00 88 1019.6
20260830100037 50 0 0.0 0.0 0.00 0.01 0.00 88 1019.5
20260830095522 50 0 0.0 0.0 0.00 0.01 0.00 88 1019.6
20260830095019 50 0 0.0 0.0 0.00 0.01 0.00 88 1019.6
20260830094602 50 0 0.0 0.0 0.00 0.01 0.00 88 1019.5
20260830094019 51 0 0.0 0.0 0.00 0.01 0.00 88 1019.6
20260830093523 51 0 0.0 0.0 0.00 0.01 0.00 88 1019.5
20260830093038 51 0 0.0 0.0 0.00 0.01 0.00 88 1019.5
20260830092523 51 0 0.0 0.0 0.00 0.01 0.00 88 1019.6
20260830092025 51 0 0.0 0.0 0.00 0.01 0.00 88 1019.5
20260830091538 51 0 0.0 0.0 0.00 0.01 0.00 88 1019.6
20260830091021 51 0 0.0 0.0 0.00 0.01 0.00 88 1019.6
20260830090520 51 0 0.0 0.0 0.00 0.01 0.00 88 1019.7
20260830090047 51 0 0.0 0.0 0.00 0.01 0.00 88 1019.7
20260830085520 51 0 0.0 0.0 0.00 0.01 0.00 88 1019.7
20260830085022 51 0 0.0 0.0 0.00 0.01 0.00 88 1019.8
20260830084538 51 0 0.0 0.0 0.00 0.01 0.00 87 1019.7
20260830084020 51 0 0.0 0.0 0.00 0.01 0.00 87 1019.6
20260830083521 51 0 0.0 0.0 0.00 0.01 0.00 87 1019.6
20260830083036 51 0 0.0 0.0 0.00 0.01 0.00 87 1019.7
20260830082517 51 0 0.0 0.0 0.00 0.01 0.00 87 1019.6
20260830082016 52 0 0.0 0.0 0.00 0.01 0.00 87 1019.8
20260830081535 52 0 0.0 2.0 0.00 0.01 0.00 87 1019.6
20260830081020 52 0 0.0 2.0 0.00 0.01 0.00 87 1019.7
20260830080523 52 87 0.0 2.0 0.00 0.01 0.00 87 1019.6